Change the Weather History Date:

Saturday, October 22, 2011

  Actual Average Record
Temperature  
Mean Temperature 52 °F -  
Max Temperature 61 °F - - ()
Min Temperature 43 °F - - ()
Degree Days  
Heating Degree Days 13    
Growing Degree Days 2 (Base 50)    
Moisture  
Dew Point 46 °F    
Average Humidity 79    
Maximum Humidity 96    
Minimum Humidity 44    
Precipitation  
Precipitation 0.00 in - - ()
Sea Level Pressure  
Sea Level Pressure 29.91 in    
Wind  
Wind Speed 3 mph ()    
Max Wind Speed 7 mph    
Max Gust Speed 18 mph    
T = Trace of Precipitation, MM = Missing Value Source: Averaged Metar Reports

Daily Weather History Graph

Daily Weather History Graph

Search for Another Location

Airport or City:

Trip Planner

Search our weather history database for the weather conditions in past years. The results will help you decide how hot, cold, wet, or windy it might be!

Date:

Astronomy

Oct. 22, 2011 Rise Set
Actual Time 7:28 AM ADT 6:02 PM ADT
Civil Twilight 6:57 AM ADT 6:33 PM ADT
Nautical Twilight 6:22 AM ADT 7:08 PM ADT
Astronomical Twilight 5:47 AM ADT 7:43 PM ADT
Moon 2:02 AM ADT (10/22) 3:32 PM ADT (10/22)
Length of Visible Light 11h 35m
Length of Day
10h 34m
Waning Crescent, 24% of the Moon is Illuminated
Oct 22
Waning Crescent
Oct 26
New
Nov 2
First Quarter
Nov 10
Full
Nov 18
Last Quarter

Hourly Weather History & Observations

Time (ADT) Temp. Windchill Dew Point Humidity Pressure Visibility Wind Dir Wind Speed Gust Speed Precip Events Conditions
12:00 AM 53.6 °F - 50.2 °F 88% 29.80 in - WSW 2.3 mph - N/A   Unknown
1:00 AM 51.4 °F - 48.2 °F 89% 29.80 in - SSW 2.3 mph - N/A   Unknown
2:00 AM 52.9 °F - 45.0 °F 74% 29.82 in - WSW 4.6 mph - N/A   Unknown
3:00 AM 53 °F - 47 °F 72% 29.83 in - West 3.5 mph - -  
3:00 AM 53.2 °F - 46.6 °F 78% 29.83 in - West 3.5 mph - N/A   Unknown
5:00 AM 48.2 °F - 45.0 °F 89% 29.86 in - South 2.3 mph - N/A   Unknown
6:00 AM 46.8 °F - 44.6 °F 92% 29.88 in - WNW 1.2 mph - N/A   Unknown
7:00 AM 46.4 °F 45.2 °F 44.8 °F 94% 29.89 in - WNW 3.5 mph - N/A   Unknown
8:00 AM 45.5 °F - 43.5 °F 93% 29.91 in - SSW 2.3 mph - N/A   Unknown
9:00 AM 50 °F - 47 °F 88% 29.92 in - SE 5.8 mph - -  
9:00 AM 50.2 °F - 47.5 °F 90% 29.92 in - SE 5.8 mph - N/A   Unknown
10:00 AM 56.8 °F - 45.3 °F 65% 29.93 in - SSW 4.6 mph - N/A   Unknown
11:00 AM 59.9 °F - 42.8 °F 53% 29.94 in - West 6.9 mph 18.4 mph N/A   Unknown
12:00 PM 60.8 °F - 44.1 °F 54% 29.94 in - West 6.9 mph - N/A   Unknown
1:00 PM 60.8 °F - 44.4 °F 55% 29.93 in - West 4.6 mph - N/A   Unknown
2:00 PM 60.1 °F - 44.8 °F 57% 29.93 in - West 3.5 mph - N/A   Unknown
3:00 PM 61 °F - 45 °F 44% 29.93 in - West 4.6 mph - -  
3:00 PM 61.0 °F - 44.8 °F 55% 29.93 in - West 4.6 mph - N/A   Unknown
4:00 PM 56.3 °F - 49.6 °F 78% 29.94 in - NNE 4.6 mph - N/A   Unknown
5:00 PM 55.2 °F - 48.2 °F 77% 29.95 in - NNE 2.3 mph - N/A   Unknown
6:00 PM 53.4 °F - 49.6 °F 87% 29.95 in - NE 3.5 mph - N/A   Unknown
7:00 PM 49.5 °F - 46.8 °F 90% 29.97 in - West 2.3 mph - N/A   Unknown
8:00 PM 46.9 °F - 45.3 °F 94% 29.97 in - WSW 3.5 mph - N/A   Unknown
9:00 PM 46 °F - 44 °F 91% 29.98 in - WSW 3.5 mph - -  
9:00 PM 45.7 °F 44.4 °F 44.2 °F 95% 29.98 in - WSW 3.5 mph - N/A   Unknown
10:00 PM 43.9 °F 42.3 °F 42.6 °F 95% 29.97 in - WSW 3.5 mph - N/A   Unknown
11:00 PM 44.4 °F 42.9 °F 43.3 °F 96% 29.96 in - WSW 3.5 mph - N/A   Unknown